Weather History for KOJC - October, 2013

Change the Weather History Date:

Tuesday, October 29, 2013

  Actual Average Record
Temperature  
Mean Temperature 58 °F 52 °F  
Max Temperature 65 °F 62 °F 83 °F (1950)
Min Temperature 51 °F 42 °F 24 °F (1980)
Degree Days  
Heating Degree Days 7 13  
Month to date heating degree days 306 249  
Since 1 July heating degree days 333 298  
Cooling Degree Days 0 0  
Month to date cooling degree days 31 27  
Year to date cooling degree days 1360 1348  
Growing Degree Days 8 (Base 50)    
Moisture  
Dew Point 55 °F    
Average Humidity 92    
Maximum Humidity 100    
Minimum Humidity 83    
Precipitation  
Precipitation 0.97 in 0.10 in 0.97 in (2013)
Month to date precipitation 2.03 3.28  
Year to date precipitation 31.53 35.75  
Sea Level Pressure  
Sea Level Pressure 30.01 in    
Wind  
Wind Speed 7 mph (SE)    
Max Wind Speed 14 mph    
Max Gust Speed 18 mph    
Visibility 3 miles    
Events Fog , Rain    
T = Trace of Precipitation, MM = Missing Value Source: NWS Daily Summary

Daily Weather History Graph

Daily Weather History Graph

Search for Another Location

Airport or City:

Trip Planner

Search our weather history database for the weather conditions in past years. The results will help you decide how hot, cold, wet, or windy it might be!

Date:

Astronomy

Oct. 29, 2013 Rise Set
Actual Time 7:43 AM CDT 6:21 PM CDT
Civil Twilight 7:15 AM CDT 6:49 PM CDT
Nautical Twilight 6:44 AM CDT 7:20 PM CDT
Astronomical Twilight 6:13 AM CDT 7:51 PM CDT
Moon 2:36 AM CDT 3:33 PM CDT
Length of Visible Light 11h 33m
Length of Day
10h 38m
Waning Crescent, 25% of the Moon is Illuminated
Oct 29
Waning Crescent
Nov 3
New
Nov 9
First Quarter
Nov 17
Full
Nov 25
Last Quarter

Hourly Weather History & Observations

Time (CDT) Temp. Dew Point Humidity Pressure Visibility Wind Dir Wind Speed Gust Speed Precip Events Conditions
12:53 AM 53.1 °F 48.0 °F 83% 30.09 in 10.0 mi SSE 10.4 mph - N/A   Clear
1:53 AM 54.0 °F 48.0 °F 80% 30.09 in 10.0 mi SE 4.6 mph - N/A   Scattered Clouds
2:53 AM 54.0 °F 50.0 °F 86% 30.07 in 10.0 mi SE 6.9 mph - 0.01 in Rain Light Rain
3:21 AM 53.6 °F 50.0 °F 88% 30.08 in 2.0 mi East 10.4 mph - 0.15 in Rain Heavy Rain
3:33 AM 51.8 °F 50.0 °F 94% 30.08 in 3.0 mi East 9.2 mph - 0.19 in Rain Light Rain
3:53 AM 52.0 °F 51.1 °F 97% 30.08 in 4.0 mi East 6.9 mph - 0.23 in Rain Light Rain
4:05 AM 51.8 °F 50.0 °F 94% 30.07 in 2.5 mi East 10.4 mph - 0.06 in Rain Rain
4:12 AM 51.8 °F 50.0 °F 94% 30.06 in 4.0 mi East 10.4 mph - 0.08 in Rain Light Rain
4:35 AM 51.8 °F 50.0 °F 94% 30.08 in 5.0 mi NE 9.2 mph - 0.11 in Rain Light Rain
4:48 AM 51.8 °F 51.8 °F 100% 30.06 in 2.0 mi ENE 10.4 mph - 0.18 in Rain Heavy Rain
4:49 AM 52.0 °F 51.1 °F 97% 30.06 in 2.0 mi ENE 11.5 mph - 0.19 in Rain Heavy Rain
5:08 AM 51.8 °F 51.8 °F 100% 30.06 in 2.5 mi East 9.2 mph - 0.09 in Rain Heavy Rain
5:31 AM 51.8 °F 51.8 °F 100% 30.06 in 3.0 mi East 5.8 mph - 0.20 in Rain Rain
5:53 AM 52.0 °F 52.0 °F 100% 30.05 in 3.0 mi East 9.2 mph - 0.27 in Rain Rain
6:53 AM 53.1 °F 52.0 °F 96% 30.03 in 3.0 mi ESE 12.7 mph - 0.20 in Rain Rain
7:53 AM 53.1 °F 52.0 °F 96% 30.04 in 10.0 mi ESE 5.8 mph - 0.05 in   Overcast
8:53 AM 53.1 °F 52.0 °F 96% 30.06 in 9.0 mi ESE 6.9 mph - 0.00 in   Overcast
9:50 AM 53.6 °F 53.6 °F 100% 30.06 in 5.0 mi ESE 5.8 mph - N/A   Overcast
9:53 AM 54.0 °F 54.0 °F 100% 30.06 in 5.0 mi ESE 5.8 mph - N/A   Overcast
10:53 AM 55.0 °F 55.0 °F 100% 30.05 in 5.0 mi East 6.9 mph - 0.00 in   Overcast
11:27 AM 55.4 °F 55.4 °F 100% 30.04 in 6.0 mi East 5.8 mph - 0.00 in   Overcast
11:49 AM 57.2 °F 55.4 °F 94% 30.03 in 2.0 mi ESE 8.1 mph - 0.01 in Rain Light Rain
11:53 AM 57.0 °F 55.9 °F 96% 30.03 in 2.0 mi ESE 8.1 mph - 0.01 in Rain Light Rain
12:53 PM 57.9 °F 57.0 °F 97% 30.01 in 2.0 mi SE 6.9 mph - 0.00 in   Overcast
1:53 PM 57.9 °F 57.0 °F 97% 29.97 in 1.5 mi SE 5.8 mph - 0.00 in Rain Light Rain
2:02 PM 57.2 °F 57.2 °F 100% 29.96 in 1.0 mi SE 6.9 mph - 0.00 in   Overcast
2:15 PM 57.2 °F 57.2 °F 100% 29.96 in 1.5 mi SSE 8.1 mph - 0.01 in   Overcast
2:53 PM 57.9 °F 57.9 °F 100% 29.94 in 1.2 mi SSE 6.9 mph - 0.01 in   Overcast
3:33 PM 59.0 °F 57.2 °F 94% 29.94 in 0.8 mi SE 6.9 mph - N/A   Overcast
3:53 PM 59.0 °F 59.0 °F 100% 29.93 in 1.0 mi SSE 5.8 mph - N/A   Overcast
4:18 PM 60.8 °F 59.0 °F 94% 29.94 in 1.5 mi SSE 8.1 mph - N/A   Overcast
4:28 PM 60.8 °F 59.0 °F 94% 29.93 in 1.2 mi SSE 5.8 mph - N/A   Overcast
4:53 PM 60.1 °F 60.1 °F 100% 29.94 in 0.8 mi South 5.8 mph - N/A   Overcast
5:53 PM 60.1 °F 60.1 °F 100% 29.94 in 0.5 mi SSE 5.8 mph - N/A Fog Fog
6:53 PM 61.0 °F 61.0 °F 100% 29.94 in 0.5 mi South 6.9 mph - N/A Fog Fog
7:53 PM 61.0 °F 61.0 °F 100% 29.96 in 0.2 mi SSE 5.8 mph - N/A Fog Fog
8:53 PM 62.1 °F 61.0 °F 96% 29.96 in 0.2 mi SSE 5.8 mph - N/A Fog Fog
9:53 PM 62.1 °F 62.1 °F 100% 29.96 in 0.2 mi SSE 6.9 mph - N/A Fog Fog
10:53 PM 63.0 °F 63.0 °F 100% 29.96 in 0.8 mi South 5.8 mph - N/A   Mist
11:00 PM 64.4 °F 62.6 °F 94% 29.97 in 1.5 mi South 5.8 mph - N/A   Overcast
11:23 PM 64.4 °F 64.4 °F 100% 29.97 in 2.0 mi South 8.1 mph - N/A   Overcast
11:53 PM 64.9 °F 64.0 °F 97% 29.96 in 2.5 mi South 6.9 mph - N/A   Overcast